EW9733 Weather Reports


time (UTC)temp
C
wind
direction
speed
KPH
gust
KPH
rain 1hr
cm
rain 24hr
cm
rain mn
cm
humidity
%
barometer
mb
20260510130040 13 182 1.6 3.2 0.00 0.64 0.03 91 1011.8
20260510124537 13 321 0.0 6.4 0.00 0.64 0.03 91 1011.8
20260510123036 13 165 0.0 8.0 0.00 0.64 0.03 91 1011.5
20260510121533 13 214 8.0 16.1 0.00 0.64 0.03 92 1010.8
20260510120030 12 225 4.8 19.3 0.00 0.64 0.03 93 1011.3
20260510114527 12 163 6.4 12.9 0.00 0.66 0.03 94 1011.4
20260510113023 12 167 1.6 11.3 0.00 0.66 0.03 94 1011.6
20260510111522 12 298 1.6 6.4 0.00 0.66 0.03 94 1011.9
20260510110031 12 231 1.6 6.4 0.00 0.66 0.03 94 1011.9
20260510104517 11 192 0.0 3.2 0.00 0.66 0.03 94 1011.6
20260510103014 11 192 0.0 0.0 0.00 0.66 0.03 94 1011.8
20260510101513 11 192 0.0 3.2 0.00 0.66 0.03 94 1011.8
20260510100015 11 145 0.0 3.2 0.00 0.66 0.03 94 1011.7
20260510094520 11 196 1.6 4.8 0.00 0.66 0.03 94 1011.3
20260510093012 11 192 0.0 6.4 0.00 0.66 0.03 94 1011.2
20260510091516 11 210 0.0 4.8 0.00 0.66 0.03 94 1010.8
20260510090010 11 150 1.6 6.4 0.00 0.66 0.03 94 1010.8
20260510084505 11 312 0.0 4.8 0.00 0.66 0.03 94 1010.9
20260510083004 11 252 0.0 1.6 0.00 0.66 0.03 94 1011.0
20260510081504 11 255 0.0 3.2 0.00 0.66 0.03 94 1011.0
20260510080001 11 245 0.0 6.4 0.00 0.66 0.03 94 1011.0
20260510074601 11 175 0.0 8.0 0.00 0.66 0.03 94 1010.7
20260510073100 11 216 0.0 4.8 0.00 0.66 0.03 94 1010.6
20260510071558 11 227 0.0 3.2 0.00 0.66 0.03 94 1010.5
20260510070057 11 150 0.0 3.2 0.00 0.66 0.03 94 1010.4
20260510064554 11 184 0.0 6.4 0.00 0.66 0.03 93 1010.4
20260510063052 11 130 0.0 1.6 0.00 0.66 0.03 93 1010.5
20260510061553 11 130 0.0 3.2 0.00 0.66 0.03 93 1010.4
20260510060052 11 132 0.0 3.2 0.00 0.66 0.03 93 1010.4
20260510054548 11 131 0.0 4.8 0.00 0.66 0.03 93 1010.2
20260510053058 11 132 0.0 0.0 0.00 0.66 0.03 93 1010.5
20260510051549 11 132 0.0 0.0 0.00 0.66 0.03 93 1010.7
20260510050044 11 132 0.0 1.6 0.03 0.66 0.03 93 1010.6
20260510044542 11 132 0.0 3.2 0.03 0.66 0.03 93 1010.6
20260510043052 11 136 0.0 3.2 0.03 0.66 0.03 93 1010.5
20260510041539 11 146 0.0 3.2 0.03 0.66 0.03 93 1010.7
20260510040041 11 146 0.0 0.0 0.00 0.64 0.00 92 1010.7
20260510034539 11 146 0.0 3.2 0.00 0.64 0.64 92 1010.7
20260510033035 11 146 0.0 0.0 0.00 0.64 0.64 92 1010.8
20260510031537 11 146 0.0 1.6 0.03 0.64 0.64 92 1010.8
20260510030035 11 146 0.0 6.4 0.03 0.64 0.64 92 1011.3
20260510024535 11 158 1.6 8.0 0.03 0.64 0.64 92 1011.6
20260510023033 11 151 1.6 8.0 0.03 0.64 0.64 92 1011.9
20260510021541 11 145 0.0 4.8 0.00 0.61 0.61 92 1011.9
20260510020033 11 142 0.0 8.0 0.00 0.61 0.61 92 1012.0
20260510014534 11 156 0.0 3.2 0.00 0.61 0.61 92 1012.2
20260510013033 11 146 1.6 8.0 0.00 0.61 0.61 92 1012.3
20260510011540 11 144 0.0 9.7 0.00 0.61 0.61 92 1012.3
20260510010030 12 186 0.0 6.4 0.00 0.61 0.61 92 1012.5
20260510004532 12 167 0.0 4.8 0.03 0.61 0.61 92 1012.2
20260510003029 12 154 0.0 8.0 0.03 0.61 0.61 92 1012.3
20260510001528 12 148 1.6 11.3 0.03 0.61 0.61 92 1012.2
20260510000037 12 148 1.6 6.4 0.05 0.61 0.61 92 1012.3
20260509234527 12 120 1.6 8.0 0.13 0.58 0.58 92 1012.2
20260509233026 12 202 0.0 11.3 0.28 0.58 0.58 92 1012.2
20260509231527 12 173 0.0 14.5 0.36 0.58 0.58 92 1012.1
20260509230026 12 153 1.6 12.9 0.41 0.56 0.56 92 1011.8
20260509224525 12 207 3.2 11.3 0.36 0.46 0.46 91 1011.9
20260509223023 12 190 1.6 11.3 0.23 0.30 0.30 91 1011.7
20260509221523 12 207 3.2 12.9 0.18 0.23 0.23 90 1011.5
20260509220023 13 164 1.6 16.1 0.13 0.15 0.15 90 1011.5
20260509214521 13 192 3.2 16.1 0.08 0.10 0.10 89 1011.4
20260509213027 13 163 3.2 16.1 0.05 0.08 0.08 87 1011.3
20260509211520 14 200 8.0 17.7 0.03 0.05 0.05 80 1011.1
20260509210019 15 184 4.8 17.7 0.00 0.03 0.03 77 1010.6
20260509204518 15 194 6.4 14.5 0.00 0.03 0.03 77 1011.1
20260509203017 15 134 4.8 16.1 0.00 0.03 0.03 76 1010.9
20260509201517 16 248 0.0 8.0 0.00 0.03 0.03 69 1010.8
20260509200017 16 158 1.6 12.9 0.00 0.03 0.03 69 1010.8
20260509194516 16 161 6.4 25.7 0.00 0.03 0.03 66 1010.9
20260509193025 16 146 3.2 14.5 0.00 0.03 0.03 69 1010.8
20260509191512 16 213 0.0 16.1 0.00 0.03 0.03 69 1010.7
20260509190012 16 177 3.2 8.0 0.00 0.03 0.03 70 1010.8
20260509184528 16 268 1.6 12.9 0.00 0.03 0.03 70 1011.1
20260509183008 16 187 1.6 11.3 0.00 0.03 0.03 73 1011.1
20260509181508 15 153 3.2 16.1 0.00 0.03 0.03 78 1010.9
20260509180004 15 159 1.6 8.0 0.00 0.03 0.03 77 1011.6
20260509174503 15 169 1.6 14.5 0.00 0.03 0.03 72 1011.9
20260509173002 16 164 4.8 16.1 0.00 0.03 0.03 68 1012.0
20260509171500 16 198 4.8 11.3 0.00 0.03 0.03 67 1011.8
20260509170107 16 155 0.0 8.0 0.00 0.03 0.03 70 1011.9
20260509164559 15 249 0.0 11.3 0.00 0.03 0.03 70 1011.9
20260509163057 15 167 0.0 11.3 0.00 0.03 0.03 71 1011.9
20260509161552 15 181 3.2 12.9 0.00 0.03 0.03 71 1012.2
20260509160051 15 183 1.6 9.7 0.00 0.03 0.03 71 1012.3
20260509154549 15 180 0.0 12.9 0.00 0.03 0.03 72 1012.6
20260509153055 14 144 1.6 11.3 0.00 0.03 0.03 73 1012.8
20260509151540 13 158 3.2 11.3 0.00 0.03 0.03 75 1012.8
20260509150037 12 178 0.0 14.5 0.00 0.03 0.03 75 1012.7
20260509144534 12 131 1.6 8.0 0.00 0.03 0.03 76 1013.0
20260509143031 11 159 3.2 8.0 0.00 0.03 0.03 79 1013.3
20260509141527 11 139 0.0 6.4 0.00 0.03 0.03 83 1013.4
20260509140023 10 150 3.2 9.7 0.00 0.03 0.03 88 1013.7
20260509134519 10 195 1.6 8.0 0.00 0.03 0.03 91 1013.9
20260509133015 8 150 0.0 1.6 0.00 0.03 0.03 92 1013.9
20260509131513 7 155 0.0 3.2 0.00 0.03 0.03 91 1014.0